When you browse on this site, cookies collect data to enhance your experience and personalize the content and advertising you see.
Visit our Privacy Policy to learn more. By continuing to use the site, you agree to this use of cookies and data.
  • In Österreich
  • Länderverzeichnis
  • Für 7 Tage
  • Wassertemperatur
  • Satellitenkarten
  • Wetterkarte
  • News
  • Widgets
  • user-avatar
    Anmelden

    Stündliche Wetter Iokogama

    Heute, 19 April, Freitag

    Zeit Temperatur Niederschläge Wind Luftdruck Luftfeuchtigkeit
    00:00 +15°C° 0 mm 5 m/S 756 mmHg 74%
    01:00 +15°C° 0 mm 5 m/S 756 mmHg 76%
    02:00 +14°C° 0 mm 5 m/S 756 mmHg 77%
    03:00 +14°C° 0 mm 5 m/S 756 mmHg 79%
    04:00 +14°C° 0 mm 5 m/S 756 mmHg 78%
    05:00 +15°C° 0 mm 5 m/S 755 mmHg 77%
    06:00 +15°C° 0 mm 5 m/S 755 mmHg 76%
    07:00 +16°C° 0 mm 5 m/S 755 mmHg 67%
    08:00 +19°C° 0 mm 5 m/S 755 mmHg 59%
    09:00 +21°C° 0 mm 5 m/S 755 mmHg 50%
    10:00 +22°C° 0 mm 5 m/S 754 mmHg 47%
    11:00 +23°C° 0 mm 4 m/S 754 mmHg 44%
    12:00 +26°C° 0 mm 4 m/S 754 mmHg 41%
    13:00 +25°C° 0 mm 4 m/S 753 mmHg 42%
    14:00 +25°C° 0 mm 4 m/S 753 mmHg 43%
    15:00 +25°C° 0 mm 4 m/S 753 mmHg 45%
    16:00 +23°C° 0 mm 4 m/S 753 mmHg 47%
    17:00 +24°C° 0 mm 3 m/S 753 mmHg 48%
    18:00 +23°C° 0 mm 2 m/S 753 mmHg 50%
    19:00 +21°C° 0 mm 3 m/S 754 mmHg 51%
    20:00 +20°C° 0 mm 5 m/S 754 mmHg 52%
    21:00 +19°C° 0 mm 6 m/S 754 mmHg 53%
    22:00 +17°C° 0 mm 6 m/S 755 mmHg 54%
    23:00 +16°C° 0 mm 6 m/S 755 mmHg 55%

    Morgen, 20 April, Samstag

    Zeit Temperatur Niederschläge Wind Luftdruck Luftfeuchtigkeit
    00:00 +15°C° 0 mm 6 m/S 756 mmHg 56%
    01:00 +15°C° 0 mm 6 m/S 756 mmHg 57%
    02:00 +14°C° 0 mm 5 m/S 756 mmHg 59%
    03:00 +14°C° 0 mm 5 m/S 757 mmHg 60%
    04:00 +13°C° 0 mm 5 m/S 757 mmHg 59%
    05:00 +13°C° 0 mm 4 m/S 758 mmHg 57%
    06:00 +13°C° 0 mm 4 m/S 758 mmHg 55%
    07:00 +14°C° 0 mm 3 m/S 758 mmHg 52%
    08:00 +14°C° 0 mm 3 m/S 759 mmHg 49%
    09:00 +16°C° 0 mm 2 m/S 759 mmHg 46%
    10:00 +17°C° 0 mm 3 m/S 759 mmHg 44%
    11:00 +18°C° 0 mm 3 m/S 758 mmHg 43%
    12:00 +19°C° 0 mm 3 m/S 758 mmHg 42%
    13:00 +19°C° 0 mm 4 m/S 758 mmHg 44%
    14:00 +20°C° 0 mm 5 m/S 758 mmHg 46%
    15:00 +20°C° 0 mm 6 m/S 757 mmHg 49%
    16:00 +19°C° 0 mm 6 m/S 757 mmHg 54%
    17:00 +17°C° 0 mm 6 m/S 757 mmHg 59%
    18:00 +16°C° 0 mm 6 m/S 757 mmHg 64%
    19:00 +15°C° 0 mm 6 m/S 758 mmHg 67%
    20:00 +15°C° 0 mm 6 m/S 758 mmHg 69%
    21:00 +15°C° 0 mm 5 m/S 759 mmHg 71%
    22:00 +15°C° 0 mm 5 m/S 758 mmHg 73%
    23:00 +14°C° 0 mm 5 m/S 758 mmHg 74%

    übermorgen, 21 April, Sonntag

    Zeit Temperatur Niederschläge Wind Luftdruck Luftfeuchtigkeit
    00:00 +14°C° 0 mm 5 m/S 758 mmHg 75%
    01:00 +14°C° 0 mm 5 m/S 758 mmHg 76%
    02:00 +14°C° 0 mm 4 m/S 757 mmHg 77%
    03:00 +14°C° 0 mm 4 m/S 757 mmHg 78%
    04:00 +14°C° 0 mm 4 m/S 757 mmHg 78%
    05:00 +14°C° 0 mm 3 m/S 757 mmHg 77%
    06:00 +15°C° 0 mm 2 m/S 757 mmHg 77%
    07:00 +16°C° 0 mm 2 m/S 757 mmHg 70%
    08:00 +19°C° 0 mm 1 m/S 757 mmHg 63%
    09:00 +21°C° 0 mm 1 m/S 757 mmHg 56%
    10:00 +20°C° 0 mm 2 m/S 757 mmHg 52%
    11:00 +21°C° 0 mm 2 m/S 756 mmHg 49%
    12:00 +22°C° 0 mm 3 m/S 756 mmHg 45%
    13:00 +22°C° 0 mm 3 m/S 756 mmHg 46%
    14:00 +23°C° 0 mm 4 m/S 755 mmHg 46%
    15:00 +23°C° 0 mm 4 m/S 755 mmHg 46%
    16:00 +22°C° 0 mm 4 m/S 755 mmHg 52%
    17:00 +21°C° 0 mm 4 m/S 755 mmHg 58%
    18:00 +21°C° 0 mm 4 m/S 755 mmHg 64%
    19:00 +20°C° 0 mm 3 m/S 756 mmHg 67%
    20:00 +19°C° 0 mm 3 m/S 756 mmHg 71%
    21:00 +19°C° 0 mm 2 m/S 756 mmHg 75%
    22:00 +18°C° 0 mm 2 m/S 756 mmHg 74%
    23:00 +18°C° 0 mm 2 m/S 756 mmHg 73%

    22 April, Montag

    Zeit Temperatur Niederschläge Wind Luftdruck Luftfeuchtigkeit
    00:00 +18°C° 0 mm 2 m/S 756 mmHg 73%
    01:00 +18°C° 0 mm 2 m/S 756 mmHg 72%
    02:00 +17°C° 0 mm 2 m/S 756 mmHg 72%
    03:00 +17°C° 0 mm 2 m/S 756 mmHg 71%
    04:00 +17°C° 0 mm 2 m/S 756 mmHg 71%
    05:00 +17°C° 0 mm 3 m/S 757 mmHg 71%
    06:00 +17°C° 0 mm 3 m/S 757 mmHg 71%
    07:00 +19°C° 0 mm 4 m/S 757 mmHg 64%
    08:00 +20°C° 0 mm 4 m/S 757 mmHg 58%
    09:00 +22°C° 0 mm 4 m/S 757 mmHg 51%
    10:00 +24°C° 0 mm 3 m/S 757 mmHg 48%
    11:00 +25°C° 0 mm 3 m/S 757 mmHg 45%
    12:00 +26°C° 0 mm 3 m/S 757 mmHg 42%
    13:00 +25°C° 0 mm 3 m/S 757 mmHg 44%
    14:00 +25°C° 0 mm 4 m/S 756 mmHg 45%
    15:00 +25°C° 0 mm 4 m/S 756 mmHg 46%
    16:00 +23°C° 0 mm 4 m/S 757 mmHg 51%
    17:00 +22°C° 0 mm 4 m/S 757 mmHg 56%
    18:00 +21°C° 0 mm 4 m/S 757 mmHg 60%
    19:00 +21°C° 0 mm 3 m/S 758 mmHg 65%
    20:00 +20°C° 0 mm 3 m/S 759 mmHg 70%
    21:00 +19°C° 0 mm 2 m/S 759 mmHg 75%
    22:00 +19°C° 0 mm 2 m/S 759 mmHg 77%
    23:00 +19°C° 0 mm 1 m/S 759 mmHg 80%

    23 April, Dienstag

    Zeit Temperatur Niederschläge Wind Luftdruck Luftfeuchtigkeit
    00:00 +19°C° 0 mm 1 m/S 759 mmHg 82%
    01:00 +19°C° 0 mm 1 m/S 759 mmHg 83%
    02:00 +19°C° 0 mm 1 m/S 759 mmHg 84%
    03:00 +19°C° 0 mm 1 m/S 759 mmHg 85%
    04:00 +19°C° 0 mm 1 m/S 759 mmHg 85%
    05:00 +19°C° 0 mm 1 m/S 760 mmHg 85%
    06:00 +19°C° 0 mm 1 m/S 760 mmHg 84%
    07:00 +20°C° 0 mm 1 m/S 760 mmHg 78%
    08:00 +22°C° 0 mm 1 m/S 760 mmHg 71%
    09:00 +23°C° 0 mm 1 m/S 760 mmHg 64%
    10:00 +24°C° 0 mm 2 m/S 760 mmHg 59%
    11:00 +25°C° 0 mm 2 m/S 759 mmHg 54%
    12:00 +26°C° 0 mm 3 m/S 759 mmHg 50%
    13:00 +26°C° 0 mm 4 m/S 759 mmHg 50%
    14:00 +26°C° 0 mm 4 m/S 758 mmHg 51%
    15:00 +27°C° 0 mm 5 m/S 758 mmHg 51%
    16:00 +26°C° 0 mm 5 m/S 758 mmHg 56%
    17:00 +25°C° 0 mm 5 m/S 759 mmHg 62%
    18:00 +23°C° 0 mm 5 m/S 759 mmHg 67%
    19:00 +22°C° 0 mm 5 m/S 759 mmHg 69%
    20:00 +21°C° 0 mm 4 m/S 760 mmHg 71%
    21:00 +21°C° 0 mm 4 m/S 760 mmHg 73%
    22:00 +20°C° 0 mm 4 m/S 760 mmHg 74%
    23:00 +20°C° 0 mm 4 m/S 760 mmHg 75%

    24 April, Mittwoch

    Zeit Temperatur Niederschläge Wind Luftdruck Luftfeuchtigkeit
    00:00 +20°C° 0 mm 4 m/S 760 mmHg 76%
    01:00 +19°C° 0 mm 3 m/S 760 mmHg 77%
    02:00 +19°C° 0 mm 3 m/S 760 mmHg 77%
    03:00 +19°C° 0 mm 3 m/S 760 mmHg 77%
    04:00 +19°C° 0 mm 3 m/S 760 mmHg 76%
    05:00 +19°C° 0 mm 2 m/S 760 mmHg 74%
    06:00 +19°C° 0 mm 2 m/S 760 mmHg 73%
    07:00 +21°C° 0 mm 2 m/S 760 mmHg 67%
    08:00 +24°C° 0 mm 2 m/S 760 mmHg 61%
    09:00 +26°C° 0 mm 3 m/S 760 mmHg 55%
    10:00 +26°C° 0 mm 4 m/S 760 mmHg 51%
    11:00 +27°C° 0 mm 5 m/S 760 mmHg 48%
    12:00 +28°C° 0 mm 6 m/S 760 mmHg 44%
    13:00 +28°C° 0 mm 6 m/S 759 mmHg 46%
    14:00 +28°C° 0 mm 7 m/S 759 mmHg 48%
    15:00 +27°C° 0 mm 8 m/S 759 mmHg 50%
    16:00 +26°C° 0 mm 7 m/S 759 mmHg 54%
    17:00 +24°C° 0 mm 7 m/S 759 mmHg 57%
    18:00 +23°C° 0 mm 7 m/S 759 mmHg 61%
    19:00 +22°C° 0 mm 6 m/S 759 mmHg 64%
    20:00 +21°C° 0 mm 6 m/S 759 mmHg 67%
    21:00 +20°C° 0 mm 5 m/S 759 mmHg 70%
    22:00 +20°C° 0 mm 5 m/S 759 mmHg 71%
    23:00 +19°C° 0 mm 5 m/S 759 mmHg 72%
    Mehr zeigen